Regional Weather Roundup
Issued by NWS

Home | Current Version | Previous Version | Graphics & Text | Print | Product List | Glossary On
Versions: 1 2 3 4 5 6 7 8 9 10 11 12 13 14 15 16 17 18 19 20 21 22 23 24 25 26 27 28 29 30 31 32 33 34 35 36 37 38 39 40 41 42 43 44 45 46 47 48 49 50
000
ASUS43 KBIS 270602
RWRND

NORTH DAKOTA REGIONAL WEATHER ROUNDUP
NATIONAL WEATHER SERVICE BISMARCK ND
100 AM CDT SAT AUG 27 2016

NOTE: "FAIR" INDICATES FEW OR NO CLOUDS BELOW 12,000 FEET WITH NO
SIGNIFICANT WEATHER AND/OR OBSTRUCTIONS TO VISIBILITY.


NDZ001>003-009>011-017-270700-
NORTHWEST NORTH DAKOTA

CITY           SKY/WX    TMP DP  RH WIND       PRES   REMARKS
WILLISTON      PTCLDY    54  45  71 CALM      29.94F
6HR MIN TEMP:  53; 6HR MAX TEMP:  71;

MINOT          FAIR      59  53  80 S8        29.92S
MINOT AFB      FAIR      58  53  84 S8        29.90F
$$

NDZ018>021-031>035-040>046-270700-
SOUTHWEST NORTH DAKOTA

CITY           SKY/WX    TMP DP  RH WIND       PRES   REMARKS
BISMARCK       PTCLDY    54  51  90 S5        30.00S
6HR MIN TEMP:  52; 6HR MAX TEMP:  67;

DICKINSON      CLOUDY    52  46  80 W9        29.98R
GARRISON         N/A     57  56  96 S12       29.96S
6HR MIN TEMP:  55; 6HR MAX TEMP:  66;

HETTINGER ARPT CLOUDY    56  53  90 SE6       30.00F
$$

NDZ004>008-012>016-024-026-027-054-270700-
NORTHEAST NORTH DAKOTA

CITY           SKY/WX    TMP DP  RH WIND       PRES   REMARKS
GRAND FORKS    FAIR      55  51  86 S8        30.01S
GRND FRKS AFB  FAIR      54  50  86 S7        30.01S
DEVILS LAKE    MOCLDY    59  52  77 S15       29.99F
$$

NDZ022-023-025-028>030-036>039-047>053-270700-
SOUTHEAST NORTH DAKOTA

CITY           SKY/WX    TMP DP  RH WIND       PRES   REMARKS
FARGO          LGT RAIN  63  56  78 SE6       30.03F
6HR MIN TEMP:  61; 6HR MAX TEMP:  67; 6HR PCP: TRACE;

JAMESTOWN      CLOUDY    57  55  93 S7        30.01F
$$





USA.gov is the U.S. government's official web portal to all federal, state and local government web resources and services.